TimeEDT,TemperatureF,Dew PointF,Humidity,Sea Level PressureIn,VisibilityMPH,Wind Direction,Wind SpeedMPH,Gust SpeedMPH,PrecipitationIn,Events,Conditions,WindDirDegrees,DateUTC
12:02 AM,53.6,48.2,82,30.26,10.0,ENE,6.9,-,N/A,,Mostly Cloudy,70,2012-10-09 04:02:00
12:53 AM,54.0,51.1,90,30.27,10.0,East,10.4,-,0.01,Rain,Light Rain,90,2012-10-09 04:53:00
1:13 AM,53.6,51.8,94,30.28,10.0,East,10.4,-,0.01,Rain,Light Rain,100,2012-10-09 05:13:00
1:53 AM,53.1,52.0,96,30.27,7.0,East,8.1,-,0.07,Rain,Light Rain,100,2012-10-09 05:53:00
2:17 AM,53.6,51.8,94,30.27,6.0,East,5.8,-,0.05,Rain,Rain,90,2012-10-09 06:17:00
2:53 AM,53.1,52.0,96,30.25,6.0,East,8.1,-,0.12,Rain,Rain,90,2012-10-09 06:53:00
3:18 AM,53.6,51.8,94,30.25,5.0,East,8.1,-,0.06,Rain,Rain,80,2012-10-09 07:18:00
3:40 AM,53.6,51.8,94,30.21,6.0,East,11.5,-,0.10,Rain,Rain,80,2012-10-09 07:40:00
4:03 AM,53.6,51.8,94,30.18,5.0,East,13.8,20.7,0.02,Rain,Rain,80,2012-10-09 08:03:00
4:06 AM,53.6,51.8,94,30.18,6.0,East,12.7,20.7,0.03,Rain,Rain,80,2012-10-09 08:06:00
4:13 AM,53.6,51.8,94,30.19,8.0,East,16.1,21.9,0.03,Rain,Light Rain,90,2012-10-09 08:13:00
4:53 AM,53.1,53.1,100,30.20,6.0,ENE,8.1,-,0.07,Rain,Rain,60,2012-10-09 08:53:00
5:06 AM,53.6,51.8,94,30.19,8.0,East,13.8,20.7,0.01,Rain,Light Rain,90,2012-10-09 09:06:00
5:10 AM,53.6,51.8,94,30.19,9.0,East,15.0,20.7,0.01,Rain,Light Rain,90,2012-10-09 09:10:00
5:53 AM,54.0,53.1,97,30.19,7.0,East,10.4,-,0.05,Rain,Light Rain,80,2012-10-09 09:53:00
6:09 AM,53.6,53.6,100,30.19,9.0,East,11.5,-,0.00,Rain,Light Rain,80,2012-10-09 10:09:00
6:19 AM,53.6,53.6,100,30.19,5.0,ENE,11.5,24.2,0.01,Rain,Light Rain,60,2012-10-09 10:19:00
6:53 AM,54.0,52.0,93,30.20,7.0,ENE,12.7,-,0.01,Rain,Light Rain,60,2012-10-09 10:53:00
7:29 AM,53.6,51.8,94,30.20,10.0,NE,13.8,21.9,0.00,,Overcast,50,2012-10-09 11:29:00
7:53 AM,54.0,51.1,90,30.21,10.0,ENE,12.7,-,0.00,,Overcast,60,2012-10-09 11:53:00
8:53 AM,55.0,52.0,89,30.20,9.0,ENE,15.0,20.7,N/A,,Overcast,60,2012-10-09 12:53:00
9:53 AM,57.0,53.1,87,30.20,10.0,NE,10.4,-,N/A,,Overcast,50,2012-10-09 13:53:00
10:25 AM,57.2,53.6,88,30.19,10.0,NE,13.8,21.9,0.01,,Overcast,50,2012-10-09 14:25:00
10:53 AM,57.0,54.0,89,30.19,10.0,NE,13.8,-,0.01,,Overcast,50,2012-10-09 14:53:00
11:11 AM,57.2,53.6,88,30.18,10.0,NE,12.7,-,N/A,,Overcast,40,2012-10-09 15:11:00
11:39 AM,57.2,53.6,88,30.18,5.0,NE,13.8,21.9,N/A,,Overcast,50,2012-10-09 15:39:00
11:43 AM,55.4,53.6,94,30.18,2.5,NE,13.8,-,N/A,,Overcast,40,2012-10-09 15:43:00
11:53 AM,55.9,55.0,97,30.18,2.5,NE,13.8,-,N/A,,Overcast,50,2012-10-09 15:53:00
12:53 PM,55.9,55.0,97,30.16,2.5,NE,17.3,24.2,0.00,Rain,Light Rain,40,2012-10-09 16:53:00
1:53 PM,55.9,55.0,97,30.14,3.0,NE,18.4,23.0,0.01,,Overcast,40,2012-10-09 17:53:00
2:53 PM,55.9,55.0,97,30.13,3.0,NE,20.7,25.3,0.00,Rain,Light Rain,40,2012-10-09 18:53:00
3:53 PM,55.0,54.0,96,30.13,3.0,NE,17.3,26.5,0.00,,Overcast,40,2012-10-09 19:53:00
4:53 PM,55.0,54.0,96,30.12,9.0,NE,18.4,25.3,N/A,,Overcast,40,2012-10-09 20:53:00
5:53 PM,55.0,53.1,93,30.12,10.0,NE,20.7,29.9,N/A,,Overcast,40,2012-10-09 21:53:00
6:53 PM,55.0,53.1,93,30.11,10.0,NE,19.6,28.8,N/A,,Overcast,40,2012-10-09 22:53:00
7:53 PM,55.9,54.0,93,30.10,10.0,NE,19.6,25.3,N/A,,Overcast,40,2012-10-09 23:53:00
8:53 PM,55.9,54.0,93,30.10,10.0,NE,17.3,26.5,N/A,,Overcast,40,2012-10-10 00:53:00
9:00 PM,55.4,53.6,94,30.09,10.0,NE,16.1,23.0,N/A,,Overcast,50,2012-10-10 01:00:00
9:26 PM,57.2,53.6,88,30.10,10.0,NE,17.3,23.0,N/A,,Overcast,40,2012-10-10 01:26:00
9:53 PM,57.0,55.0,93,30.11,10.0,NE,13.8,-,N/A,,Overcast,40,2012-10-10 01:53:00
10:31 PM,57.2,55.4,94,30.10,10.0,NNE,15.0,-,N/A,,Overcast,30,2012-10-10 02:31:00
10:53 PM,55.9,55.9,100,30.10,4.0,NNE,10.4,-,N/A,,Overcast,30,2012-10-10 02:53:00
11:26 PM,55.4,55.4,100,30.10,2.5,NNE,10.4,-,N/A,,Overcast,30,2012-10-10 03:26:00
11:53 PM,55.9,55.9,100,30.09,2.5,NNE,11.5,-,0.00,Rain,Light Rain,30,2012-10-10 03:53:00